Atqasuk Edward Burnell Sr Mem, AK

3:28 AM AKDT on July 17, 2019 (GMT -0800)
Atqasuk Edward Burnell Sr Mem

Weather History for PATQ - May, 2019

Change the Weather History Date:

Saturday, May 4, 2019

  Actual Average (WUND) Record (WUND)
Temperature  
Mean Temperature 30 °F -  
Max Temperature 37 °F - - (-1)
Min Temperature 24 °F - - (-1)
Degree Days  
Heating Degree Days 35    
Moisture  
Dew Point 28 °F    
Average Humidity 89    
Maximum Humidity 96    
Minimum Humidity 79    
Precipitation  
Precipitation 0.00 in - - ()
Sea Level Pressure  
Sea Level Pressure 30.04 in    
Wind  
Wind Speed 11 mph (SSE)    
Max Wind Speed 14 mph    
Max Gust Speed -    
Visibility 10 miles    
Events Rain    
Averages and records for this station are not official NWS values.
T = Trace of Precipitation, MM = Missing Value Source: NWS Daily Summary

Daily Weather History Graph

Daily Weather History Graph

Search for Another Location

Airport or City:

Astronomy

May. 04, 2019 Rise Set
Actual Time 4:32 AM AKDT 12:25 AM AKDT
Civil Twilight Sun does not set Sun does not set
Nautical Twilight Sun does not set Sun does not set
Astronomical Twilight Sun does not set Sun does not set
Moon 6:14 AM AKDT (5/4) 11:34 PM AKDT (5/4)
Length of Visible Light 24h 00m
Length of Day
19h 53m
Waning Crescent, 0% of the Moon is Illuminated
May 4
Waning Crescent
May 4
New
May 11
First Quarter
May 18
Full
May 26
Last Quarter

Hourly Weather History & Observations

Time (AKDT) Temp. Windchill Dew Point Humidity Pressure Visibility Wind Dir Wind Speed Gust Speed Precip Events Conditions
12:54 AM 32.0 °F 22.1 °F 30.2 °F 93% 29.96 in 9.0 mi SE 13.8 mph - 0.00 in   Scattered Clouds
12:56 AM 32.0 °F 22.1 °F 30.9 °F 96% 29.98 in 10.0 mi SE 13.8 mph - 0.00 in   Mostly Cloudy
1:08 AM 32.0 °F 22.1 °F 30.2 °F 93% 29.96 in 10.0 mi SE 13.8 mph - 0.00 in   Partly Cloudy
1:56 AM - - - N/A% 29.96 in 10.0 mi SE 11.5 mph - 0.00 in Rain Light Rain
2:56 AM - - - N/A% 29.97 in 10.0 mi SE 13.8 mph - 0.00 in   Clear
3:56 AM 32.0 °F 22.5 °F 30.9 °F 96% 29.99 in 10.0 mi SE 12.7 mph - N/A   Clear
4:56 AM 30.0 °F 21.7 °F 28.9 °F 96% 30.00 in 10.0 mi SE 9.2 mph - N/A   Clear
5:56 AM 25.0 °F 15.5 °F 23.0 °F 92% 30.01 in 10.0 mi SE 9.2 mph - N/A   Clear
6:56 AM 24.1 °F 14.4 °F 23.0 °F 96% 30.01 in 10.0 mi SE 9.2 mph - N/A   Clear
7:56 AM 24.1 °F 15.2 °F 21.9 °F 91% 30.02 in 10.0 mi SE 8.1 mph - N/A   Clear
8:56 AM 25.0 °F 16.3 °F 23.0 °F 92% 30.03 in 10.0 mi SE 8.1 mph - N/A   Clear
9:56 AM 28.0 °F 20.0 °F 24.1 °F 85% 30.03 in 10.0 mi SE 8.1 mph - N/A   Clear
10:56 AM 30.0 °F 22.4 °F 26.1 °F 85% 30.03 in 10.0 mi SSE 8.1 mph - N/A   Clear
11:56 AM 30.9 °F 23.5 °F 27.0 °F 85% 30.04 in 10.0 mi South 8.1 mph - N/A   Clear
12:56 PM 34.0 °F 26.6 °F 28.9 °F 82% 30.05 in 10.0 mi SSW 9.2 mph - N/A   Clear
1:56 PM 36.0 °F 29.6 °F 30.0 °F 79% 30.04 in 10.0 mi SSW 8.1 mph - N/A   Clear
2:56 PM 34.0 °F 27.2 °F 30.9 °F 89% 30.05 in 10.0 mi SSW 8.1 mph - N/A   Clear
3:56 PM 36.0 °F 30.3 °F 32.0 °F 86% 30.07 in 10.0 mi SSW 6.9 mph - N/A   Clear
4:56 PM 35.1 °F 30.1 °F 30.9 °F 85% 30.08 in 10.0 mi South 5.8 mph - N/A   Clear
5:56 PM 34.0 °F 26.6 °F 30.9 °F 89% 30.09 in 10.0 mi SSE 9.2 mph - N/A   Clear
6:56 PM 34.0 °F 26.6 °F 30.9 °F 89% 30.09 in 10.0 mi SSE 9.2 mph - N/A   Clear
7:56 PM 34.0 °F 25.5 °F 30.0 °F 85% 30.10 in 10.0 mi SE 11.5 mph - N/A   Clear
8:56 PM 32.0 °F 22.5 °F 28.9 °F 88% 30.10 in 10.0 mi SE 12.7 mph - N/A   Clear
9:56 PM 30.9 °F 21.2 °F 28.9 °F 92% 30.11 in 10.0 mi SE 12.7 mph - N/A   Clear
10:56 PM 30.9 °F 20.7 °F 28.0 °F 89% 30.11 in 10.0 mi ESE 13.8 mph - N/A   Clear
11:56 PM 28.0 °F 17.5 °F 26.1 °F 92% 30.11 in 10.0 mi SE 12.7 mph - N/A   Clear